EEST,Max TemperatureF,Mean TemperatureF,Min TemperatureF,Max Dew PointF,MeanDew PointF,Min DewpointF,Max Humidity, Mean Humidity, Min Humidity, Max Sea Level PressureIn, Mean Sea Level PressureIn, Min Sea Level PressureIn, Max VisibilityMiles, Mean VisibilityMiles, Min VisibilityMiles, Max Wind SpeedMPH, Mean Wind SpeedMPH, Max Gust SpeedMPH,PrecipitationIn, CloudCover, Events, WindDirDegrees
2013-5-1,73,65,57,57,55,52,100,72,45,30.12,30.08,30.04,12,8,6,20,11,,0.00,,,358
2013-5-2,77,67,57,55,54,52,94,68,32,30.06,30.02,29.98,12,7,6,20,11,,0.00,2,,19
2013-5-3,69,63,57,55,53,52,88,72,52,29.98,29.95,29.89,6,5,4,12,9,,0.00,3,,26
2013-5-4,71,62,53,59,55,48,100,82,52,29.98,29.94,29.89,6,4,1,9,6,,0.00,4,Fog,262
2013-5-5,79,68,56,59,52,45,83,59,31,30.09,30.03,29.95,6,5,4,15,6,,0.00,,,5
2013-5-6,76,68,60,61,56,53,94,70,36,30.16,30.12,30.09,6,6,4,21,12,32,0.00,3,,16
2013-5-7,70,65,60,55,54,54,77,71,49,30.12,30.05,29.98,6,6,6,21,13,,0.00,3,,36
2013-5-8,71,65,59,54,53,51,77,69,44,29.98,29.94,29.89,6,6,6,21,15,32,0.00,4,,36
2013-5-9,65,62,59,54,52,51,82,72,54,29.98,29.94,29.92,6,6,6,14,10,18,0.00,6,,23
2013-5-10,66,62,57,55,53,52,88,74,60,29.95,29.91,29.89,6,6,6,14,8,,0.00,5,,14
2013-5-11,66,60,54,57,53,52,94,77,60,29.89,29.81,29.74,6,6,4,14,9,,0.00,2,,314
2013-5-12,70,62,54,57,53,50,88,70,47,29.77,29.71,29.65,6,6,6,8,5,,0.00,1,,240
2013-5-13,72,66,61,59,55,50,88,69,50,29.71,29.67,29.65,6,6,4,10,5,,0.28,5,Rain,226
2013-5-14,64,62,60,59,56,54,88,75,63,29.83,29.74,29.65,6,6,4,20,9,,0.39,6,Rain,342
2013-5-15,66,62,58,61,54,48,100,73,45,29.92,29.86,29.80,6,6,3,13,7,,0.00,4,Rain-Thunderstorm,262
2013-5-16,77,68,59,59,54,46,94,63,36,29.95,29.91,29.89,12,5,2,8,4,,0.00,1,,166
2013-5-17,79,72,64,61,55,50,88,57,31,29.94,29.90,29.83,6,6,6,12,4,,0.00,5,Rain,162
2013-5-18,77,70,64,61,57,53,83,58,38,30.01,29.96,29.89,7,6,6,12,5,,0.00,,,239
2013-5-19,84,75,66,63,58,50,78,57,33,29.99,29.96,29.92,6,6,6,9,4,,0.00,2,,235
2013-5-20,80,71,62,59,55,50,73,53,28,30.01,29.95,29.92,6,6,6,9,5,,0.00,,,186
2013-5-21,85,74,64,61,53,46,68,47,28,29.98,29.94,29.92,12,8,6,13,5,,0.00,,,85
2013-5-22,82,72,63,57,53,50,73,50,27,29.92,29.84,29.77,12,8,6,8,4,,0.00,,,182
2013-5-23,87,77,67,59,55,52,73,47,27,29.77,29.64,29.56,6,6,6,26,8,,0.01,3,Rain,157
2013-5-24,74,71,66,59,55,50,68,55,44,29.86,29.75,29.65,6,6,6,25,15,37,0.00,3,,241
2013-5-25,80,72,64,59,54,46,73,55,30,29.92,29.88,29.83,6,6,6,16,9,,0.00,,,213
2013-5-26,80,72,64,59,54,46,83,54,31,29.92,29.87,29.80,12,9,6,14,6,,0.00,,,208
2013-5-27,76,69,62,57,51,39,73,55,27,29.98,29.91,29.83,12,6,6,18,7,,0.00,2,,227
2013-5-28,75,67,59,55,47,30,77,50,19,30.01,29.98,29.92,6,6,6,9,4,,0.00,,,186
2013-5-29,87,77,67,55,46,37,64,36,15,29.95,29.79,29.62,7,6,6,16,8,,0.00,,,65
2013-5-30,80,72,64,63,59,54,88,65,37,29.71,29.67,29.65,6,6,4,12,7,,0.00,4,,233
2013-5-31,82,74,67,59,53,43,73,47,21,29.74,29.66,29.62,6,6,6,20,7,25,0.00,,,233